Weather in Cottbus

Germany     51°45′25″N   14°19′59″E
temp.,
°C
wind,
m/s
gust,
m/s
humid.,
%
clouds,
%
prec.,
mm/h
press.,
hPa
HPBL,
m
17 may, mon
mon1723:00+9ssw35905 0.0 100370
02:00+8ssw33908 0.0 100341
05:00+7ssw3693100 0.0 100288
08:00+10sw4888100 0.1 1004316
11:00+13wsw35816 0.1 1004433
14:00+16sw5761100 0.8 10041513
17:00+16wsw6765100 0.3 10041239
20:00+12wsw4883100 0.8 1005237
18 may, tue
tue1823:00+9wsw4119462 0.0 1007291
02:00+8wsw512954 0.0 1007304
05:00+7wsw399850 0.0 1008238
08:00+11w598690 0.0 1010568
11:00+11w698796 0.2 1011744
14:00+16wnw576017 0.3 10101583
17:00+15w676412 0.4 10101087
20:00+11w588793 2.9 1011269
19 may, wed
wed1923:00+8wsw4109517 0.6 1012228
02:00+6wsw489748 0.6 1013186
05:00+8w489670 0.0 1013297
08:00+9w51094100 0.1 1014681
11:00+10nnw698189 0.8 1015891
14:00+13wnw456994 1.6 10151046
17:00+13wnw567286 1.4 1015784
20:00+11nnw227614 1.6 101632
20 may, thu
thu2023:00+8wsw22825 0.0 101710
02:00+6wsw339210 0.0 101731
05:00+6w35955 0.0 101897
08:00+10w5785100 0.0 1019452
11:00+13nw576951 0.1 10201252
14:00+14nw6756100 0.3 10201911
17:00+14nw676439 0.4 10211317
20:00+11wnw36765 0.7 1021117
21 may, fri
fri2123:00+7w349121 0.0 102261
02:00+7wsw369557 0.0 1022114
05:00+6wsw369435 0.0 1021119
08:00+10wsw34825 0.0 1020332
11:00+15wsw3557100 0.0 10181406
14:00+17wsw4554100 0.1 10161610
17:00+17sw4662100 0.3 1014900
20:00+14sse367886 0.7 1012111